FW7601 Weather Reports


time (UTC)temp
C
wind
direction
speed
KPH
gust
KPH
rain 1hr
cm
rain 24hr
cm
rain mn
cm
humidity
%
barometer
mb
20260507172120 12 338 4.8 12.9 0.00 0.00 0.00 44 1012.5
20260507171120 12 203 4.8 11.3 0.00 0.00 0.00 48 1012.7
20260507170120 11 293 4.8 11.3 0.00 0.00 0.00 51 1012.8
20260507165120 11 293 1.6 3.2 0.00 0.00 0.00 46 1012.9
20260507164120 11 293 4.8 11.3 0.00 0.00 0.00 48 1013.0
20260507163155 11 270 3.2 9.7 0.00 0.00 0.00 48 1013.1
20260507162120 11 293 4.8 9.7 0.00 0.00 0.00 50 1013.3
20260507161230 11 248 3.2 8.0 0.00 0.00 0.00 49 1013.3
20260507160120 11 293 8.0 19.3 0.00 0.00 0.00 50 1013.3
20260507155120 11 225 1.6 8.0 0.00 0.00 0.00 50 1013.3
20260507154156 10 248 4.8 14.5 0.00 0.00 0.00 49 1013.3
20260507153120 10 203 6.4 12.9 0.00 0.00 0.00 50 1013.3
20260507152120 10 203 1.6 6.4 0.00 0.00 0.00 50 1013.3
20260507151120 10 225 1.6 4.8 0.00 0.00 0.00 54 1013.1
20260507150122 9 225 4.8 9.7 0.00 0.00 0.00 52 1013.1
20260507145120 8 225 1.6 3.2 0.00 0.00 0.00 55 1013.1
20260507144120 8 225 4.8 9.7 0.00 0.00 0.00 55 1013.3
20260507143120 8 225 6.4 12.9 0.00 0.00 0.00 55 1013.3
20260507142120 8 248 4.8 12.9 0.00 0.00 0.00 55 1013.4
20260507141120 8 248 3.2 8.0 0.00 0.00 0.00 58 1013.5
20260507140157 8 225 8.0 14.5 0.00 0.00 0.00 57 1013.5
20260507135120 8 225 1.6 8.0 0.00 0.00 0.00 61 1013.4
20260507134122 8 0.0 3.2 0.00 0.00 0.00 66 1013.4
20260507133157 8 225 3.2 6.4 0.00 0.00 0.00 65 1013.4
20260507132122 8 0.0 1.6 0.00 0.00 0.00 67 1013.3
20260507131155 7 0.0 4.8 0.00 0.00 0.00 68 1013.3
20260507130120 7 248 1.6 4.8 0.00 0.00 0.00 70 1013.2
20260507125122 7 0.0 0.0 0.00 0.00 0.00 71 1013.0
20260507124122 6 0.0 1.6 0.00 0.00 0.00 74 1013.1
20260507123121 6 0.0 0.0 0.00 0.00 0.00 76 1013.1
20260507122122 5 0.0 3.2 0.00 0.00 0.00 76 1013.1
20260507121122 5 0.0 1.6 0.00 0.00 0.00 78 1013.0
20260507120122 4 0.0 0.0 0.00 0.00 0.00 81 1013.0
20260507115122 3 0.0 0.0 0.00 0.00 0.00 85 1012.8
20260507114121 2 0.0 0.0 0.00 0.00 0.00 90 1012.7
20260507113121 1 0.0 0.0 0.00 0.00 0.00 90 1012.5
20260507112121 1 0.0 0.0 0.00 0.00 0.00 88 1012.5
20260507111221 1 0.0 0.0 0.00 0.00 0.00 87 1012.2
20260507111056 0 0.0 0.0 0.00 0.00 0.00 86 1012.1